Theta_e
331 330 329 328 329 330 331 332 332 331 330 330 329 330 332 331 331 331 331 330 329 329 329 330 330 328 328 329 329 330 331 332 333 333 332 332 331 328 321 317 316 314 312 311 310 309 308 307 307 306 306 306 306 306 306 306 306 306 306 306 306 306 306 306 306 306 307 306 307 307 307 308 308 309 310 311 311 313 313 312 310 309 307 306 306
331 331 330 327 328 330 331 332 332 331 331 331 330 331 331 330 330 331 330 329 328 328 329 329 330 329 328 329 329 329 330 331 333 333 332 332 331 329 325 320 316 315 314 313 313 312 310 309 308 307 307 306 306 306 306 306 306 306 306 306 306 306 306 306 306 306 306 306 306 307 307 307 308 308 309 310 310 312 313 313 311 310 309 307 306
330 330 330 329 329 329 331 331 331 331 331 330 331 331 330 330 330 330 330 329 328 328 328 328 330 330 328 329 328 328 329 330 331 332 331 332 330 329 329 325 320 317 315 314 314 314 313 312 311 311 309 308 307 307 306 306 306 306 306 306 306 306 306 306 306 305 305 305 306 306 306 307 307 307 309 309 310 311 312 313 313 311 310 309 307
331 329 329 330 329 329 329 329 330 331 331 331 331 331 330 330 330 329 329 329 328 327 327 327 328 329 328 328 328 327 329 329 330 330 330 331 330 329 329 328 325 322 319 316 314 314 315 314 313 313 312 311 310 309 308 307 306 306 306 306 306 306 306 306 306 305 305 305 305 305 306 306 306 307 308 308 309 310 311 312 313 312 311 310 308
331 329 328 329 329 329 328 329 330 330 331 332 331 331 330 330 329 328 329 328 327 326 327 327 327 328 328 327 328 327 328 329 329 330 330 330 330 329 329 329 328 326 324 322 318 315 314 315 315 315 315 314 313 312 311 309 308 307 307 306 306 305 305 305 305 305 305 305 305 305 305 306 306 306 307 308 309 310 310 311 312 312 312 311 310
331 329 328 329 328 329 329 329 330 330 331 331 331 331 330 330 329 328 328 327 326 326 327 327 327 327 327 327 327 326 327 328 328 329 329 329 329 329 329 329 328 328 328 327 326 321 316 315 316 315 316 316 316 315 313 313 312 311 309 308 306 306 305 305 305 305 305 305 305 304 304 305 305 306 307 308 309 309 310 311 311 312 312 311 310
331 330 330 330 329 329 330 330 330 330 330 329 329 329 329 330 329 328 327 325 326 327 326 326 327 326 326 327 327 327 327 327 328 328 328 328 328 329 329 329 329 329 329 329 329 326 323 319 317 316 316 316 316 316 316 315 315 314 313 311 309 308 307 306 305 305 305 305 305 304 304 304 305 305 306 307 308 309 310 310 311 311 312 312 311
331 331 331 331 330 330 331 331 331 330 327 325 325 327 329 329 328 327 327 326 326 327 326 326 326 326 327 327 327 328 327 327 327 327 327 328 328 328 328 329 329 329 329 329 329 328 327 327 325 323 321 320 318 317 317 317 316 316 314 313 312 311 310 308 306 306 305 305 304 304 304 304 304 305 305 307 308 309 310 311 310 311 311 312 312
329 330 330 330 330 331 332 332 330 328 327 326 327 328 329 329 327 328 328 328 327 328 328 327 327 327 328 327 327 328 328 327 327 327 328 328 328 328 328 328 329 329 329 329 329 327 327 329 329 328 326 325 322 320 319 317 318 318 317 316 315 314 313 311 309 307 306 306 305 305 304 304 304 304 305 306 308 309 310 311 311 311 311 312 312
329 329 329 329 330 330 331 330 328 327 327 328 328 328 329 329 328 328 329 328 328 328 328 328 328 328 328 328 328 329 328 328 328 328 328 328 328 328 328 328 329 329 329 329 329 328 327 329 330 329 328 327 325 324 323 320 318 318 318 318 317 316 315 314 312 311 311 311 311 309 308 306 305 305 305 306 307 309 310 311 311 311 311 311 312
327 328 328 329 330 330 329 327 326 328 328 327 327 328 328 328 328 328 329 329 328 328 328 328 328 326 326 328 329 330 330 329 329 328 328 328 328 328 327 328 328 329 329 330 330 329 329 330 330 329 329 327 326 325 325 323 321 321 320 319 318 318 317 316 315 315 314 314 314 313 311 310 308 307 306 307 307 308 309 311 311 311 311 311 312
327 326 326 326 327 327 326 326 327 327 328 328 328 328 328 327 327 328 328 329 328 327 328 328 328 325 325 326 326 327 328 328 329 329 328 327 328 328 328 328 327 328 329 329 330 330 330 330 330 329 329 328 327 327 326 327 326 324 323 321 320 319 318 318 317 317 316 315 314 313 312 311 311 310 308 308 308 308 309 311 312 311 311 311 311
324 325 325 325 325 324 323 324 326 326 326 328 327 328 328 327 326 327 328 328 327 326 326 327 328 326 326 325 323 324 325 326 327 329 329 328 328 328 328 327 328 328 328 329 330 329 329 329 330 330 329 329 328 329 329 329 328 327 326 324 322 320 320 319 318 318 317 315 314 313 311 311 313 313 310 309 308 309 309 310 311 312 311 311 311
319 320 321 324 325 324 323 322 323 325 326 326 327 328 328 327 327 327 328 327 327 326 326 326 326 326 325 324 324 325 325 324 324 326 327 327 328 328 328 328 328 329 328 329 330 330 329 329 330 330 330 330 329 330 330 329 328 327 327 326 324 322 321 321 321 320 318 317 315 314 312 310 312 314 314 313 311 309 309 309 310 311 312 311 311
321 319 320 323 323 324 323 322 323 325 326 326 327 328 328 327 328 328 328 327 327 327 327 326 325 325 325 325 326 327 326 326 326 326 326 326 327 327 328 328 328 328 329 329 329 329 329 328 329 329 329 330 330 330 330 330 329 328 327 327 326 323 321 323 323 323 321 320 319 318 316 312 311 312 315 318 317 312 309 308 309 309 311 312 312
323 322 321 320 321 323 322 322 323 325 326 326 326 327 327 327 328 328 328 328 327 327 327 326 325 326 327 327 328 327 327 328 328 327 326 325 325 324 326 327 327 328 328 329 329 329 329 329 328 328 329 329 329 329 330 329 329 329 328 328 326 323 321 322 324 324 324 323 323 322 320 318 314 311 312 316 319 316 312 309 309 308 309 311 312
320 321 321 320 319 320 322 321 322 324 324 324 324 324 325 326 327 328 328 328 328 328 328 327 326 327 327 327 327 326 327 328 327 326 326 324 323 323 324 324 325 326 327 327 328 328 328 329 328 329 329 329 329 329 329 329 329 329 329 328 327 324 321 321 324 324 325 325 325 324 323 322 320 315 310 312 317 320 318 315 314 312 309 310 312
313 313 317 319 319 320 321 321 321 322 323 323 323 323 324 325 327 327 328 328 328 328 328 328 327 327 327 327 326 326 326 326 324 323 324 324 324 323 323 322 322 324 326 326 327 327 328 328 328 328 328 328 328 328 328 329 329 329 329 329 329 327 324 322 324 326 326 326 326 326 325 325 325 321 316 313 314 318 319 320 318 316 312 310 310
310 312 315 316 318 319 319 320 320 320 321 321 322 322 323 324 325 324 325 326 327 328 329 328 328 327 327 326 326 326 325 325 325 324 323 324 324 324 323 323 322 323 324 324 325 326 327 327 326 325 325 326 327 326 326 328 329 330 329 329 329 329 327 323 323 325 327 327 327 327 327 326 326 325 323 320 319 318 318 319 320 321 318 314 313
313 317 317 313 314 317 319 320 319 319 320 320 320 321 321 322 323 323 324 325 325 326 326 326 327 327 327 326 326 326 325 324 324 325 324 323 323 323 324 324 324 323 323 323 322 323 324 325 325 325 325 325 324 324 324 325 327 328 329 329 329 329 328 326 324 324 327 327 327 327 327 327 327 326 326 326 326 324 321 318 318 321 322 321 320
311 313 314 310 310 313 316 318 318 318 317 314 312 312 312 312 314 317 320 323 323 323 323 323 324 325 324 324 325 325 324 324 324 325 324 324 324 323 323 324 323 323 323 323 321 321 322 324 325 327 327 327 327 326 326 326 327 328 328 329 329 329 329 328 326 325 326 327 327 327 327 327 327 327 327 327 327 327 325 321 317 318 321 323 324
309 310 309 307 307 308 309 312 314 314 314 311 307 304 304 305 305 307 310 313 317 322 322 319 319 321 322 322 323 323 323 323 324 324 323 322 322 323 323 323 322 322 320 321 321 319 319 320 320 321 322 324 326 325 323 323 325 327 328 328 327 327 328 329 329 328 327 327 326 326 326 327 327 328 328 327 327 327 327 325 322 319 319 320 323
308 309 308 307 307 306 306 307 308 310 312 312 310 307 306 306 305 305 305 305 308 314 314 310 311 316 319 321 321 321 322 322 322 323 322 321 321 320 320 319 318 318 318 319 319 317 315 314 313 313 315 316 318 321 321 322 324 326 328 327 327 327 329 330 330 330 329 328 326 326 326 327 327 327 328 328 328 327 327 327 326 324 322 321 320
308 309 308 308 307 307 306 306 306 307 308 310 311 310 309 307 306 306 306 306 306 306 306 307 309 310 312 315 316 316 317 316 316 317 318 317 316 315 316 317 316 317 318 318 317 316 314 314 313 313 316 317 318 322 325 325 326 326 327 327 327 329 329 329 329 330 329 329 328 327 326 326 327 326 327 328 328 328 327 327 326 326 325 324 322
309 309 309 308 308 307 307 306 306 306 306 307 307 309 310 308 306 306 306 306 306 306 305 307 308 308 309 312 312 311 309 308 306 308 309 308 309 313 316 316 316 315 315 314 314 315 316 317 317 317 318 319 321 324 325 325 325 325 326 326 327 328 328 329 329 329 328 327 328 328 327 327 327 327 326 327 328 328 328 328 327 327 327 326 325
311 309 309 309 308 308 308 307 307 306 306 306 305 307 311 309 306 306 307 306 306 306 306 305 305 306 308 310 311 309 307 306 306 309 310 306 307 312 312 311 312 313 314 315 314 315 316 316 318 319 320 321 323 325 325 325 324 324 324 324 325 326 327 328 328 328 326 325 327 328 328 328 328 328 327 327 327 327 327 327 327 327 327 327 327
314 310 309 309 309 309 308 308 308 307 307 307 306 306 308 308 306 306 307 306 306 306 306 306 305 305 305 308 312 311 306 306 307 309 309 306 305 306 306 308 312 314 315 315 314 314 315 316 316 317 319 320 321 323 324 324 324 323 323 323 323 324 324 325 326 326 325 324 325 327 328 328 328 328 328 327 327 327 326 326 326 326 326 327 327
316 312 310 310 309 309 309 309 308 308 308 307 307 306 306 306 306 306 306 306 306 306 306 306 305 305 304 305 309 308 304 304 306 305 305 304 303 303 305 309 311 312 314 315 314 315 315 315 316 316 316 317 318 319 321 322 323 322 322 321 321 320 321 323 324 324 323 323 324 325 326 326 327 327 328 328 327 327 327 326 326 326 326 326 326
318 314 311 311 310 310 310 309 309 309 308 308 308 307 307 307 306 306 306 306 306 305 306 306 305 305 304 304 305 305 303 303 304 303 303 303 303 303 304 306 307 308 312 313 312 313 313 313 315 316 315 316 318 318 318 320 320 320 319 319 319 317 317 318 318 316 315 316 320 322 324 325 326 326 326 327 327 327 327 327 326 326 326 326 326
319 315 313 312 311 311 310 310 309 309 309 308 308 308 307 307 307 307 307 306 306 305 305 305 305 305 304 304 304 304 304 304 304 303 304 303 303 303 304 307 308 308 308 307 306 307 309 310 313 315 315 316 317 318 317 317 316 316 315 315 314 312 310 309 308 307 306 306 309 312 315 318 322 324 325 325 326 326 327 327 327 327 326 326 326
320 317 314 312 311 311 312 310 309 310 309 309 309 309 308 308 308 307 307 306 306 306 305 305 305 305 305 304 304 304 304 304 305 305 304 304 304 304 305 307 309 309 306 305 304 304 306 307 308 309 310 310 310 310 310 309 310 311 311 310 308 307 306 305 305 305 305 305 305 305 305 307 312 318 322 323 324 325 326 326 326 326 326 326 326
320 319 318 316 314 312 312 312 311 310 310 309 309 309 309 308 308 308 307 307 307 307 306 306 305 305 305 305 305 305 304 304 305 305 305 307 307 306 307 308 308 309 308 308 309 307 306 306 305 304 304 304 304 304 304 304 306 308 309 308 307 305 304 304 304 304 304 304 305 306 306 305 307 309 313 316 319 322 324 325 326 326 326 326 325
319 320 320 320 319 316 314 313 313 312 311 311 310 310 309 309 309 309 308 308 307 308 307 307 306 306 306 306 306 306 305 305 305 304 306 309 309 309 309 309 310 310 310 310 310 309 307 306 305 304 303 303 303 304 305 304 304 305 305 305 305 304 303 303 304 306 307 307 307 308 309 310 310 310 309 309 310 313 317 320 323 324 325 325 325
319 319 319 320 320 319 317 316 315 314 314 313 312 311 310 310 310 309 309 309 308 308 308 307 307 307 306 305 305 306 306 305 305 305 305 307 308 307 307 308 309 309 308 308 308 307 306 305 305 304 304 305 305 305 304 303 303 304 305 305 305 305 305 304 305 307 308 309 311 312 312 312 313 314 314 312 310 309 310 312 316 318 321 322 323
319 319 319 319 320 320 319 319 318 317 316 316 315 313 312 312 311 310 310 310 309 309 308 307 307 308 307 306 305 306 306 306 305 305 305 305 306 305 306 306 306 307 307 308 308 308 307 307 307 307 308 307 305 304 304 304 304 305 306 307 308 307 307 307 307 307 308 310 312 312 312 312 312 313 314 314 312 310 308 308 310 312 314 317 319
320 320 319 319 319 320 319 320 319 319 318 318 317 316 315 314 313 312 311 310 310 309 309 308 308 308 308 307 306 306 306 306 305 305 305 305 305 304 304 303 303 305 306 307 307 308 308 307 306 306 305 305 303 304 305 306 307 307 307 308 308 308 309 309 309 309 309 309 310 311 312 312 313 313 313 313 313 312 310 308 307 307 308 310 312
320 320 320 318 319 319 319 320 320 320 319 319 318 317 317 315 314 314 313 312 311 311 310 309 308 308 308 307 306 306 306 305 305 305 305 305 304 303 303 302 301 301 302 303 303 303 303 303 302 302 302 303 303 304 305 306 306 307 308 308 308 308 308 308 308 308 307 306 308 309 309 309 310 310 311 312 312 311 309 307 306 306 305 305 306
318 318 318 317 318 318 319 320 320 320 320 320 319 318 317 316 315 314 314 313 312 312 311 309 309 308 308 307 306 306 306 305 305 305 304 304 304 304 304 303 302 300 300 299 299 298 299 299 300 301 302 303 305 305 305 306 307 308 308 308 308 307 307 308 308 309 309 310 312 312 310 308 308 308 308 308 308 307 306 306 306 305 305 305 305
316 315 316 318 317 317 317 319 320 320 320 320 319 319 318 317 316 315 315 314 313 312 312 311 310 309 308 307 307 306 306 305 305 304 304 304 304 304 303 303 302 300 299 297 296 296 297 297 299 301 303 305 306 306 306 306 307 308 308 308 308 308 309 310 311 311 310 310 309 308 307 307 308 309 309 309 308 307 306 306 306 305 306 306 306
317 317 317 319 319 317 317 319 319 320 320 319 319 319 319 318 317 316 315 314 314 313 312 312 311 310 309 308 307 307 306 306 305 304 304 303 303 303 303 302 301 300 298 297 296 296 296 296 297 300 302 304 305 305 305 306 307 308 308 309 309 309 309 309 310 309 308 306 305 305 305 305 304 305 306 308 309 310 311 312 311 309 309 308 307
320 320 320 319 319 319 318 318 319 319 319 319 319 318 318 318 317 316 315 314 314 313 312 312 311 310 309 308 307 307 307 307 306 304 303 303 303 302 302 302 301 299 298 296 296 295 295 296 296 297 299 300 301 303 304 305 306 306 306 307 307 307 307 307 307 306 306 306 307 307 308 307 307 307 307 308 309 310 312 315 315 314 312 311 310
319 319 320 320 320 320 318 318 319 319 319 319 319 317 317 318 318 317 316 315 314 313 312 312 311 310 309 307 307 307 307 307 306 305 304 303 302 302 302 301 300 298 297 296 296 296 295 295 295 296 296 297 297 299 301 302 303 304 305 305 306 306 306 306 306 306 307 307 308 309 309 309 309 311 312 312 313 313 313 314 314 314 314 315 314
318 318 318 319 321 321 320 320 320 320 320 320 319 317 317 318 318 317 316 315 314 313 312 312 311 310 309 307 306 306 306 306 305 304 303 302 302 302 302 301 300 299 297 296 296 296 296 296 296 296 296 296 296 297 299 300 302 304 305 305 306 306 307 307 307 307 307 307 307 307 307 306 307 308 309 310 311 313 314 315 316 316 317 318 317
317 318 318 319 320 320 319 320 321 321 320 320 319 318 318 318 318 317 316 315 314 313 312 311 310 309 308 307 306 305 305 305 304 303 302 301 301 301 301 300 298 297 296 296 296 296 296 296 296 296 296 296 296 297 297 298 299 301 302 303 304 305 306 306 306 306 305 305 305 305 304 304 305 306 306 305 305 306 307 310 313 314 314 315 316
315 317 318 318 318 318 316 317 319 319 318 320 320 319 318 318 318 317 315 314 314 313 311 310 309 308 307 306 305 305 304 303 302 301 300 300 300 300 299 297 296 295 295 295 295 296 296 296 296 297 297 297 297 297 297 297 298 298 299 299 300 301 302 303 303 303 303 304 304 305 305 304 304 304 303 303 302 301 301 303 306 309 310 311 313
313 314 316 316 316 317 316 316 317 318 318 319 320 319 319 318 318 316 314 313 313 312 310 309 308 307 307 306 305 304 303 302 301 300 299 300 299 299 297 296 295 295 295 295 295 296 296 296 297 297 297 297 297 297 297 297 298 298 298 298 299 299 299 300 300 300 301 302 303 304 303 302 302 301 301 301 301 301 301 301 302 304 307 311 313
311 312 314 315 315 316 316 315 316 317 318 318 318 319 319 318 317 316 314 313 312 311 309 308 308 307 307 306 305 303 303 302 300 299 299 299 299 297 296 295 295 295 295 295 296 296 296 296 297 297 297 297 297 297 297 298 298 298 299 299 299 299 299 299 299 298 299 299 300 301 301 301 301 301 301 301 302 302 302 302 301 302 304 308 311
311 311 312 313 314 315 315 315 315 317 317 317 317 318 318 318 316 314 314 314 312 309 308 308 307 307 306 304 304 303 303 302 301 300 299 298 297 296 296 295 295 295 295 296 296 296 296 296 296 296 297 297 297 297 297 298 298 298 298 298 298 298 298 298 298 298 298 298 298 299 300 300 301 301 301 302 302 303 303 303 303 303 304 307 309
311 312 312 312 313 313 314 315 316 316 317 317 317 317 317 317 315 314 314 314 312 309 308 307 306 305 304 303 303 303 302 301 300 299 298 297 296 296 296 296 296 296 296 296 296 296 295 295 296 296 296 297 297 297 297 298 297 297 297 297 297 297 297 297 297 297 297 298 298 298 299 300 301 302 302 303 303 303 304 304 304 304 305 306 308
309 311 312 312 313 313 314 314 315 315 315 316 317 317 317 316 315 314 314 313 311 309 307 306 305 304 303 302 302 302 301 300 299 298 297 297 297 296 296 296 296 296 296 296 295 295 295 295 295 295 295 295 296 296 297 297 297 297 297 297 297 296 296 296 296 296 296 297 297 298 299 299 300 301 302 303 303 303 304 305 305 306 306 307 308
309 310 311 312 312 313 313 314 314 312 313 315 316 316 316 315 315 314 314 312 310 308 306 304 303 302 302 302 301 301 300 299 298 297 297 297 297 296 296 296 296 296 296 295 295 295 294 294 294 294 295 294 295 295 295 296 296 297 297 297 297 296 296 296 296 296 296 296 296 297 298 299 300 300 301 302 302 303 304 305 305 307 308 309 310
Wind_Speed
9 9 10 10 9 11 12 12 12 12 11 12 13 12 12 9 5 6 6 6 9 11 10 11 13 13 12 9 8 9 8 10 11 10 9 8 7 7 6 4 4 4 4 4 4 5 6 6 6 6 7 6 7 7 7 7 7 6 6 5 5 4 4 4 4 4 3 2 2 1 2 3 4 5 6 7 8 9 10 11 11 12 12 12 12
9 9 11 11 11 11 12 12 12 11 10 11 12 12 11 8 6 6 8 7 9 10 11 12 11 10 11 9 8 9 9 10 9 9 9 8 6 6 6 5 4 3 3 4 4 4 5 5 5 6 6 6 6 6 7 7 8 8 7 7 6 5 5 4 5 5 5 4 3 2 1 1 2 3 4 5 6 7 8 9 10 11 11 11 11
9 10 11 12 13 12 12 12 11 10 9 9 9 10 10 8 6 7 8 9 8 9 10 13 11 8 10 10 8 9 9 9 7 8 9 9 7 4 5 6 5 4 4 4 4 4 4 4 4 4 5 5 6 6 6 7 7 8 8 8 7 7 6 5 5 5 5 5 4 3 2 1 0 1 2 3 4 6 7 7 9 9 10 10 11
10 10 11 12 13 13 13 12 11 11 9 8 7 8 9 7 6 7 8 10 11 12 9 10 13 9 8 9 8 9 8 7 7 7 9 12 10 6 5 5 5 6 5 5 5 5 5 5 5 4 4 5 5 6 6 6 7 7 8 8 8 8 8 7 6 6 6 6 5 5 4 3 2 1 0 1 2 4 5 6 7 8 9 9 10
11 10 11 12 13 13 13 11 10 11 11 10 8 9 9 6 5 5 8 11 11 14 11 9 13 11 8 7 8 9 8 8 10 8 9 12 10 8 7 6 6 6 6 6 6 6 6 6 6 5 5 5 5 6 6 6 6 7 7 8 9 9 9 9 8 8 7 6 6 6 5 4 4 3 2 1 1 2 3 4 5 6 7 8 9
11 10 12 12 12 12 11 10 10 10 12 12 12 12 9 7 7 6 7 11 8 9 12 11 12 11 11 11 9 9 10 9 10 9 11 11 9 9 8 8 8 7 7 7 7 8 7 7 6 6 6 5 5 5 5 6 6 7 7 7 8 9 9 9 9 9 9 8 7 7 6 6 5 5 4 3 2 1 1 2 3 5 6 7 7
10 9 10 11 11 11 9 10 10 9 10 10 13 15 12 10 10 9 8 9 7 8 9 9 10 9 9 12 10 8 11 11 9 10 11 12 11 9 9 10 9 8 8 9 9 9 9 8 6 6 6 6 5 5 5 5 6 7 7 7 8 9 10 10 10 11 10 9 9 8 8 7 7 6 6 5 4 3 1 1 2 3 4 5 6
9 8 8 8 10 9 8 10 9 6 6 8 13 15 14 12 10 11 10 7 6 8 7 6 7 8 9 14 14 11 13 14 12 12 11 12 13 11 10 11 10 9 10 10 10 9 9 9 7 7 6 6 6 5 5 5 6 7 7 7 8 9 10 10 11 11 10 9 9 10 9 9 9 8 7 6 5 4 3 1 1 2 3 4 5
7 7 6 7 8 8 8 8 6 6 7 9 13 15 13 13 11 13 14 10 9 9 8 9 8 10 11 14 15 14 14 15 15 14 12 10 12 12 12 12 12 11 12 12 11 10 10 9 8 8 7 7 6 6 5 5 5 6 6 7 8 8 9 9 10 10 10 9 9 10 10 10 10 10 9 8 7 5 4 3 1 0 1 2 3
3 3 3 5 6 7 7 5 3 6 9 9 13 17 16 14 14 15 14 13 14 11 9 10 10 10 10 10 10 10 11 13 14 15 14 10 9 11 11 12 12 12 12 12 12 12 11 10 10 10 9 8 7 7 7 5 5 6 6 6 7 7 8 8 9 9 9 9 8 8 9 10 10 11 11 9 8 7 6 4 3 2 0 1 2
3 3 1 2 3 4 3 2 1 4 7 9 11 16 18 14 13 14 14 13 13 11 10 8 8 9 9 7 7 6 6 7 8 11 13 11 10 10 11 12 12 13 13 12 13 14 13 12 12 12 11 10 9 8 7 6 5 5 6 6 7 7 7 7 7 8 8 8 7 7 8 9 10 10 11 10 9 8 7 5 4 3 2 1 0
3 4 3 3 5 5 3 1 1 1 3 7 9 13 16 15 13 13 13 12 11 11 10 7 7 10 9 7 8 7 5 5 4 7 11 13 13 12 13 12 10 11 14 13 12 14 15 14 14 14 12 12 11 9 7 7 7 6 6 7 8 8 7 7 8 8 8 8 7 7 7 8 9 9 10 10 10 9 8 6 5 4 3 3 2
2 1 2 4 6 7 4 1 1 1 2 5 7 9 12 13 13 13 12 12 12 11 10 9 9 10 9 8 9 9 8 8 6 5 7 10 12 13 14 15 12 11 13 14 13 13 15 15 15 14 13 12 11 9 9 10 9 9 8 7 7 8 8 8 8 8 8 7 6 6 6 7 8 9 8 9 9 9 9 8 7 5 4 3 2
1 1 3 4 3 4 5 3 1 0 1 3 4 6 8 11 11 11 11 11 12 11 10 10 10 10 10 9 8 9 10 10 9 8 8 8 9 10 13 16 16 14 14 15 16 16 15 14 14 13 12 12 11 10 12 14 12 10 9 9 8 8 9 9 8 8 8 6 5 5 5 5 7 9 9 8 8 8 9 9 8 7 5 4 3
7 6 3 4 6 4 5 3 2 1 2 1 1 3 5 8 10 9 10 11 12 10 10 11 10 11 11 9 8 8 7 8 10 11 12 11 9 9 9 12 14 15 15 15 16 17 17 15 15 14 13 13 13 14 14 14 13 11 9 9 9 9 9 9 8 8 7 6 5 5 5 5 6 9 10 9 7 7 8 8 8 8 7 6 5
8 7 5 4 7 6 4 3 1 2 3 5 5 2 1 3 6 7 8 9 10 10 11 11 11 11 9 7 8 7 4 4 6 7 8 10 10 10 10 10 10 12 14 15 15 16 16 16 15 15 15 15 14 13 14 14 13 11 9 9 8 10 10 10 10 9 8 7 6 5 4 5 5 7 9 10 9 7 7 7 8 8 8 8 6
7 5 5 6 6 9 7 5 4 5 6 7 8 8 7 4 1 4 5 6 8 8 10 11 9 10 9 8 7 6 5 6 5 4 4 6 9 10 9 9 9 10 12 14 14 15 15 15 15 14 15 16 17 13 12 12 12 11 10 10 9 10 11 11 11 10 9 9 8 7 6 5 6 6 7 9 11 10 9 8 8 8 9 9 8
5 4 6 7 6 9 9 4 2 3 5 5 7 10 10 7 5 3 2 3 6 7 7 8 7 9 11 9 7 5 5 5 4 4 5 6 7 7 7 8 8 7 7 9 11 13 14 15 14 14 14 13 15 15 14 13 12 12 12 12 12 12 12 13 12 11 11 11 11 11 10 8 7 7 7 8 9 11 12 11 10 9 9 9 9
9 8 7 7 6 8 10 7 5 4 4 4 6 8 8 7 9 9 6 4 4 5 5 5 6 8 10 10 8 6 5 4 4 4 5 5 6 6 7 8 8 8 6 7 8 9 10 11 11 11 9 9 11 14 15 15 15 14 14 14 13 12 13 14 14 13 12 12 12 13 14 13 11 10 10 9 9 10 12 13 13 11 10 10 9
9 9 7 7 7 8 10 9 8 7 3 2 5 5 3 4 6 7 7 8 6 4 3 4 6 6 6 7 7 4 3 4 5 5 6 7 8 8 8 9 10 10 9 9 10 10 10 10 10 10 9 9 9 10 11 14 16 16 16 16 14 13 13 15 16 15 14 14 14 14 15 15 14 14 13 13 12 12 12 13 14 14 13 12 11
7 8 7 8 8 8 9 10 10 8 3 1 3 4 2 3 5 5 5 6 7 8 8 5 4 3 2 2 2 0 2 4 5 5 5 7 9 8 7 7 8 7 8 11 13 14 12 11 11 11 11 10 10 10 11 12 13 14 16 17 15 14 14 15 17 17 17 17 16 17 17 17 16 16 16 15 15 15 13 12 13 15 15 15 14
7 8 8 8 9 8 8 9 9 8 6 7 8 8 8 8 7 7 7 6 7 10 8 4 4 6 6 4 2 1 1 1 1 1 2 3 5 6 6 7 9 8 9 11 12 13 13 13 12 13 14 13 12 12 13 14 13 13 15 16 16 16 15 15 16 17 19 20 20 19 19 19 19 18 18 18 17 16 15 14 13 14 16 17 16
5 6 7 9 9 9 9 8 8 8 8 9 9 10 11 11 11 10 9 9 9 9 7 4 5 7 8 7 5 5 5 3 2 3 2 1 3 3 3 5 8 9 9 10 11 11 10 11 12 13 14 12 11 10 9 10 12 14 15 17 17 17 16 15 15 16 18 21 22 22 21 21 21 20 19 20 19 18 18 17 16 16 16 16 16
5 5 6 7 8 8 9 8 8 8 8 8 8 9 9 9 10 10 10 10 10 9 7 7 8 7 7 7 6 5 5 5 5 5 5 5 5 5 4 5 8 7 6 6 9 11 9 8 6 7 8 8 9 9 7 8 10 13 14 14 16 17 16 15 15 15 17 20 22 24 24 23 23 23 21 21 21 21 20 19 18 17 16 16 16
4 5 5 5 6 7 8 8 7 7 7 7 7 8 8 8 8 8 8 8 8 8 8 7 8 8 7 7 5 4 4 3 3 2 3 4 4 3 4 4 6 7 5 5 7 10 9 7 7 5 3 5 7 9 11 12 12 13 13 13 14 15 14 15 16 17 19 20 21 22 24 24 25 25 25 23 23 22 22 22 21 20 18 17 17
3 5 4 4 5 5 6 7 6 7 7 7 7 7 7 6 7 8 8 8 8 7 7 7 6 6 6 7 5 3 3 3 3 3 2 0 2 2 3 3 2 3 3 5 6 7 8 6 6 6 4 1 4 7 9 11 12 13 13 14 14 15 15 16 17 19 20 21 21 20 21 23 24 26 27 27 26 25 25 25 24 22 22 21 20
2 3 4 4 4 4 4 4 5 5 5 5 5 5 4 4 6 7 7 7 7 7 7 7 7 6 5 6 5 3 3 4 3 3 1 2 0 1 2 1 2 2 2 4 3 4 6 5 3 4 4 2 1 2 4 6 9 11 13 14 15 15 16 17 18 19 20 20 21 21 21 22 22 24 26 27 28 29 28 28 26 25 24 24 24
5 2 2 3 4 4 3 3 3 3 4 4 4 4 3 3 4 5 6 6 6 7 8 7 8 8 7 6 4 4 5 5 5 5 4 4 3 2 2 2 4 4 3 3 2 1 2 1 2 3 5 4 3 4 5 6 8 10 11 13 14 14 15 16 17 18 18 18 19 20 22 22 23 24 24 26 27 30 31 31 29 28 27 27 26
9 5 2 3 4 4 4 3 2 2 2 2 2 2 2 2 3 3 4 5 5 6 6 7 7 7 7 6 6 6 7 6 6 7 6 6 5 4 4 4 4 4 4 5 4 4 4 2 2 3 1 1 3 5 7 8 10 12 13 15 16 17 17 18 19 20 20 19 19 20 20 21 22 23 25 26 26 28 30 31 32 31 29 29 28
11 9 6 6 6 6 6 5 3 2 1 0 0 1 0 1 2 2 2 3 4 5 4 5 6 6 6 6 5 6 5 5 5 6 6 6 6 5 5 5 5 5 6 8 8 6 6 5 6 7 8 8 8 10 12 13 15 17 17 19 21 22 22 21 22 23 22 21 20 20 21 22 22 22 23 24 26 27 28 29 30 31 31 30 30
11 12 10 9 8 8 8 8 7 6 5 4 2 2 2 1 1 1 1 2 2 3 4 4 4 4 5 5 4 6 6 5 5 5 6 6 7 6 4 3 4 6 7 9 11 8 7 8 10 10 11 12 13 14 15 16 16 16 17 18 20 19 19 19 19 20 20 20 19 20 21 22 24 24 23 23 24 25 27 28 29 29 30 30 30
12 13 13 11 11 10 10 10 10 10 9 8 6 5 5 4 3 3 1 1 2 1 2 2 2 2 3 3 4 5 6 6 6 6 6 7 9 10 10 8 6 6 8 9 12 13 11 11 13 13 13 14 15 15 15 15 14 14 15 16 18 17 17 17 17 17 17 18 18 18 18 19 20 23 25 26 26 26 27 28 30 31 31 32 32
13 14 15 14 13 12 12 12 13 13 12 11 10 9 9 8 6 6 4 3 4 4 2 2 2 2 2 3 3 3 5 6 6 6 5 5 7 8 10 10 8 7 7 8 12 16 16 15 16 16 15 15 15 14 14 16 15 15 15 16 16 16 15 15 15 16 16 17 17 17 17 17 17 19 22 25 28 29 30 30 30 31 33 34 35
12 14 16 15 15 15 15 15 15 15 15 14 14 12 12 12 10 10 9 6 6 6 5 5 6 4 2 2 4 5 5 6 6 6 5 2 3 3 3 5 5 6 8 10 12 16 18 18 18 18 17 16 16 16 16 17 17 16 17 17 17 16 15 14 14 15 15 16 17 17 18 18 19 20 22 23 25 27 29 31 32 32 32 33 34
14 14 15 15 16 17 18 17 17 17 17 17 17 16 15 14 14 13 12 10 9 9 9 8 8 8 6 4 5 7 7 7 8 8 7 5 4 4 4 5 7 8 9 11 13 15 19 20 19 19 18 18 19 20 19 18 18 17 17 17 18 18 18 17 16 15 13 14 17 19 20 20 21 22 23 25 26 26 26 28 31 33 34 34 34
18 18 16 16 18 19 19 19 19 19 19 19 18 19 17 16 16 16 15 13 12 12 12 10 8 9 10 8 8 9 9 9 9 9 8 8 7 7 8 8 8 8 9 10 12 14 17 19 20 20 20 20 21 20 19 18 18 17 17 16 16 17 18 18 18 18 17 17 19 21 23 24 24 24 25 26 28 28 27 27 27 29 32 35 36
18 19 20 20 20 20 21 22 22 21 21 20 19 20 19 17 18 18 17 16 14 14 14 12 11 11 12 11 9 10 10 10 10 10 9 9 10 11 11 12 11 11 11 13 14 15 17 19 21 20 20 21 21 19 18 18 18 17 17 17 17 17 18 18 19 19 19 18 16 17 20 22 24 25 27 28 29 30 30 29 28 27 29 32 35
22 21 24 25 22 22 22 23 24 24 23 22 20 20 19 18 18 20 20 18 17 16 15 14 14 14 13 12 11 11 11 11 12 12 11 12 12 13 14 15 15 15 15 15 16 16 17 19 20 21 20 20 20 19 18 17 17 18 18 19 19 19 20 20 19 17 16 15 14 15 17 20 22 24 25 26 27 28 29 29 28 28 27 28 31
26 23 25 28 26 24 24 24 25 25 25 23 21 21 21 20 20 21 21 20 19 18 17 17 17 16 15 14 13 13 12 12 13 13 13 13 14 15 15 16 17 17 17 17 17 17 18 19 19 20 20 19 19 20 19 17 17 18 19 19 19 18 17 17 17 17 18 20 22 23 23 22 23 24 25 26 26 26 26 26 26 27 27 27 28
24 23 23 25 25 24 25 27 28 28 27 26 24 23 23 22 23 24 23 22 22 20 19 19 18 17 16 15 14 14 14 14 14 14 14 15 15 16 17 17 18 18 18 18 18 18 18 19 19 20 20 19 19 19 19 17 17 17 17 18 19 20 20 20 21 23 25 26 27 27 25 23 21 21 22 24 25 24 24 24 23 23 23 25 26
18 20 21 22 23 22 24 26 28 30 30 29 28 26 24 25 26 27 25 23 23 21 21 20 18 18 17 16 15 15 15 15 14 15 15 16 17 17 18 19 20 19 19 18 18 19 20 20 21 21 21 21 21 20 19 18 19 20 20 21 23 25 26 26 26 26 25 24 24 24 23 22 21 20 19 20 21 22 23 24 24 24 24 24 25
13 15 16 19 21 22 23 25 27 31 32 31 30 29 27 26 28 29 26 25 24 22 21 20 19 19 18 17 16 16 16 15 15 16 17 17 18 18 20 20 20 19 19 19 19 20 21 22 23 23 23 24 23 22 21 21 21 22 23 23 24 25 26 27 28 25 20 18 19 21 21 19 19 20 19 19 18 19 21 23 24 25 26 25 26
11 12 14 15 17 19 22 24 26 28 30 30 30 29 27 27 30 32 30 26 24 22 22 21 20 19 18 16 17 17 17 16 17 18 18 18 19 20 21 22 22 21 22 22 23 23 23 24 24 24 24 26 26 24 23 22 20 20 21 22 23 23 22 23 25 24 20 18 20 24 26 25 24 24 25 24 22 21 22 23 23 24 24 24 24
10 12 13 15 16 18 20 22 23 24 26 28 28 27 27 27 30 34 32 28 24 22 22 20 19 18 17 16 17 18 18 18 19 19 20 20 20 21 22 23 23 23 24 24 25 26 26 26 27 26 26 26 26 26 25 25 25 26 26 26 26 26 26 26 27 27 26 24 25 28 31 30 28 27 29 28 27 27 26 26 25 26 26 26 25
11 12 14 15 17 18 19 20 21 22 23 25 26 26 27 28 30 33 32 29 25 23 22 20 19 17 17 17 16 17 18 19 19 19 19 19 19 21 22 23 24 25 25 25 26 27 28 28 29 30 29 27 27 27 26 26 28 30 31 31 32 32 33 33 32 33 31 28 25 28 33 33 31 32 35 34 33 33 32 30 28 27 27 28 28
11 13 15 16 17 18 19 19 20 21 22 22 22 24 28 30 31 32 31 28 25 23 21 20 20 19 18 18 17 17 18 18 19 18 17 17 18 21 22 24 26 26 26 26 26 27 27 28 29 31 30 29 29 29 27 24 26 28 30 31 32 34 35 36 37 38 36 32 29 31 38 39 36 37 40 38 36 35 33 31 30 28 27 27 27
12 13 14 16 16 17 18 19 19 21 22 21 19 22 26 28 30 30 30 28 25 22 21 21 21 21 21 20 20 19 19 19 20 19 18 19 21 23 25 26 27 27 27 27 27 27 27 27 29 31 31 31 31 31 28 25 25 27 28 29 31 33 36 38 39 40 39 36 33 33 40 40 35 36 39 35 32 31 29 27 28 27 26 27 28
13 14 14 15 16 16 17 18 19 21 22 21 20 21 23 26 27 27 27 28 27 24 23 23 23 22 21 20 20 20 20 21 21 20 20 22 24 26 27 28 29 29 29 29 28 28 27 27 28 29 30 30 30 31 30 29 30 31 32 34 36 36 39 42 44 43 40 38 33 29 34 37 32 32 36 33 30 29 27 24 23 23 23 24 26
14 14 14 15 16 17 17 17 20 21 21 21 21 22 23 25 26 25 25 28 29 27 25 23 22 20 19 18 19 20 19 19 20 21 23 25 26 27 28 29 31 32 33 32 31 30 28 28 28 28 29 29 30 32 31 30 29 29 33 37 38 37 39 41 43 43 40 36 30 24 28 32 29 27 30 30 28 28 27 24 22 21 22 22 24
14 15 15 15 15 16 17 19 21 22 21 21 22 23 23 24 25 25 25 27 29 28 25 22 19 18 16 15 16 17 18 20 22 23 25 26 27 28 29 31 33 34 35 34 34 33 32 31 31 31 31 31 32 32 33 32 30 28 31 36 36 34 36 37 38 38 37 34 28 23 26 30 27 25 27 28 27 26 25 24 21 19 20 22 22
15 15 15 15 15 17 19 22 23 22 21 21 22 22 22 23 24 25 25 26 26 24 21 17 14 12 11 12 14 16 19 22 23 24 25 26 27 28 30 33 35 36 36 36 36 37 37 37 37 36 36 36 35 34 34 34 33 32 32 34 32 32 34 36 35 34 33 31 22 17 21 26 24 23 23 23 24 24 20 20 19 19 20 22 23
Wind_Direction
233 232 219 211 206 199 196 198 204 212 214 205 210 227 241 234 227 254 236 206 223 228 219 222 222 201 188 197 204 192 199 214 198 203 229 225 218 215 219 221 225 241 228 229 230 214 205 198 196 193 192 193 194 197 195 197 194 192 194 190 188 182 179 181 185 185 183 180 152 119 89 70 61 58 55 56 56 55 54 53 54 53 52 51 49
225 224 225 220 216 211 201 204 212 218 220 207 208 225 236 224 201 232 239 222 224 224 217 223 235 219 192 190 212 197 198 220 201 200 230 234 226 212 219 227 225 245 243 241 238 234 229 209 199 192 187 183 185 191 192 198 199 201 203 202 201 198 196 195 197 198 196 201 195 190 153 97 61 56 52 52 54 54 55 52 51 52 52 52 51
216 216 227 227 223 223 215 218 226 227 225 212 214 225 233 223 198 218 227 226 229 230 232 222 223 239 208 187 213 213 206 227 209 197 225 244 259 246 230 237 239 251 257 261 255 249 249 230 216 207 198 189 186 190 192 197 201 207 211 213 214 212 213 209 210 213 205 208 209 207 212 200 107 56 50 49 50 52 55 54 51 48 50 52 52
220 218 225 229 227 231 226 225 231 234 229 219 224 225 229 223 200 213 216 223 226 217 232 228 213 231 228 188 203 222 212 225 215 189 215 244 267 278 266 261 254 259 264 268 267 256 254 250 240 229 221 212 203 200 199 204 206 211 216 221 227 225 226 225 224 228 220 218 219 218 221 224 232 240 2 38 45 49 54 55 55 49 46 48 50
223 220 225 230 230 233 231 230 233 236 235 224 221 217 224 223 194 209 221 230 236 213 207 220 212 212 228 205 198 220 217 220 223 199 208 239 268 277 272 284 278 270 273 276 276 262 251 250 249 243 238 235 226 218 212 215 216 219 223 227 233 235 237 235 234 238 237 231 228 229 229 232 240 246 256 265 16 46 55 54 57 55 49 46 45
226 220 221 227 234 241 239 238 235 230 232 225 220 220 220 217 200 198 226 237 246 228 213 209 203 200 222 226 206 214 217 224 235 216 203 220 255 271 269 279 278 276 279 278 277 269 260 250 249 250 248 249 245 241 234 231 231 229 231 235 238 241 244 245 243 243 244 243 240 239 238 239 244 248 255 261 264 291 54 56 57 55 52 49 43
228 222 219 227 237 247 247 240 234 231 241 236 226 222 216 217 211 196 223 239 223 230 230 206 194 197 226 233 215 202 207 218 231 226 220 213 220 247 265 271 271 273 279 282 280 270 263 258 256 256 259 262 260 261 262 257 253 248 243 242 242 244 247 250 250 248 247 247 245 243 242 243 246 249 251 256 260 264 282 26 56 54 52 50 46
234 229 225 237 239 244 248 236 220 209 233 240 225 217 213 222 218 194 202 223 219 227 227 199 197 205 225 231 221 207 202 206 211 216 225 222 219 225 241 257 266 273 276 278 276 267 263 262 263 266 269 273 271 270 269 268 268 266 263 255 250 249 249 252 253 253 250 248 247 246 247 246 245 248 249 252 255 259 267 277 26 52 50 47 46
250 248 241 250 245 239 245 247 230 205 217 226 214 205 210 222 213 195 194 194 206 216 197 190 209 214 220 226 223 219 210 208 212 211 207 217 230 229 233 247 255 266 275 273 268 263 262 260 261 267 270 274 279 282 276 267 261 262 265 263 260 258 256 256 256 258 256 254 253 250 251 250 247 245 246 249 252 255 260 262 272 348 57 48 44
271 275 243 242 243 237 243 265 266 230 228 222 207 202 207 217 209 201 203 197 202 211 201 201 217 226 232 235 229 225 221 220 220 217 211 212 226 229 240 251 246 249 262 269 271 271 268 265 264 266 267 271 275 282 282 274 259 252 253 253 257 260 260 258 257 260 264 264 262 256 252 250 249 245 244 245 246 250 254 255 258 258 252 68 49
311 339 323 257 266 270 272 301 269 226 228 222 209 207 211 218 215 208 211 211 210 216 221 220 223 230 237 246 247 231 221 227 224 221 219 215 219 225 235 247 249 246 246 254 262 267 270 271 273 272 268 270 273 277 282 282 275 261 253 249 248 252 254 256 260 263 267 271 269 263 256 251 249 246 243 242 242 245 247 249 250 245 244 229 165
34 13 10 342 328 327 342 14 277 250 233 227 218 214 216 223 226 220 217 223 227 224 228 237 230 226 231 251 265 254 239 236 224 227 227 218 218 222 220 223 237 242 241 245 247 255 267 270 272 275 274 274 272 268 276 286 288 280 265 252 246 248 251 251 254 259 262 267 269 268 260 251 248 246 243 242 240 240 242 244 244 240 237 234 224
141 163 80 31 360 346 341 337 269 250 222 232 226 220 223 227 232 231 226 228 234 232 231 232 224 224 229 241 257 259 258 249 229 230 237 229 229 231 222 215 218 225 230 234 233 240 259 266 268 272 278 282 273 266 279 285 286 288 281 267 251 240 240 243 243 250 255 258 265 271 266 252 247 246 242 241 241 240 241 242 243 242 239 239 239
32 185 126 91 66 12 331 288 204 77 258 259 244 227 228 231 235 237 234 235 237 233 228 229 231 234 231 229 246 261 262 255 245 243 246 244 248 248 235 225 226 229 228 231 230 229 238 250 256 262 269 279 281 281 285 282 281 289 288 277 263 241 234 235 237 242 248 252 259 269 274 264 252 248 243 240 242 243 244 244 244 244 244 244 246
39 33 63 103 111 79 347 296 207 87 41 5 273 226 228 229 232 234 231 234 239 238 231 232 238 240 236 234 247 260 261 257 253 252 255 257 259 261 253 243 241 243 242 241 236 233 236 239 246 251 250 257 273 280 279 279 282 288 289 277 264 252 239 232 233 237 240 242 253 267 281 285 270 258 250 245 245 247 246 246 245 245 243 243 244
84 56 49 85 117 109 36 344 34 72 55 40 32 33 319 248 237 233 225 222 231 238 233 232 236 235 229 224 235 246 239 233 237 241 257 262 256 254 257 263 265 262 261 257 248 245 246 244 248 253 246 235 242 260 268 274 279 279 281 277 268 263 252 239 235 237 241 245 251 258 272 296 297 280 263 252 247 245 243 242 242 243 242 238 237
110 93 77 78 102 108 78 21 38 64 52 37 30 33 30 16 303 225 217 207 213 222 221 221 227 226 216 209 221 226 211 213 226 236 254 258 250 250 257 266 274 271 266 262 259 260 259 254 254 264 266 244 231 238 250 259 268 269 267 265 265 266 257 248 242 238 243 253 260 263 265 285 295 291 278 260 249 244 240 238 239 242 244 239 236
88 94 101 96 94 106 102 62 34 97 88 71 57 49 43 40 50 66 108 170 195 200 204 207 210 211 207 206 210 206 204 212 228 250 260 257 247 254 267 271 278 281 268 259 264 266 261 258 260 273 283 265 246 247 246 243 250 256 261 261 261 265 259 248 244 242 244 252 261 265 265 268 270 271 273 268 258 252 247 243 240 241 243 241 238
62 67 83 102 117 132 124 96 58 84 103 114 109 85 71 68 60 51 56 84 153 176 178 181 188 200 204 210 218 217 214 224 235 246 261 264 251 258 272 273 276 279 272 265 271 269 258 255 262 275 282 274 267 266 258 250 245 242 247 252 252 256 259 253 247 245 246 252 258 260 262 263 263 262 262 264 268 265 258 251 246 242 241 242 243
60 69 68 77 101 126 127 111 86 84 98 187 166 149 138 111 88 68 66 77 90 103 105 130 159 180 194 203 214 222 225 244 262 266 274 281 279 275 275 274 275 276 272 269 268 270 268 261 259 267 273 276 280 277 267 260 256 252 251 254 253 248 251 254 251 250 248 251 256 257 258 260 262 264 262 262 266 268 266 259 252 247 242 243 247
59 71 70 66 82 105 122 125 113 104 107 135 139 147 138 125 128 121 111 107 99 89 80 85 131 131 117 148 157 231 270 268 282 295 298 297 302 306 302 297 296 295 289 282 274 269 268 265 261 264 271 274 274 275 273 270 268 265 260 259 259 254 250 247 245 248 249 250 255 258 259 258 259 263 263 262 263 264 265 262 258 253 247 246 250
59 63 64 63 72 85 103 120 119 107 86 75 80 88 89 91 102 111 119 131 128 120 115 116 140 127 108 106 117 148 221 291 303 323 344 325 316 325 333 330 326 322 314 303 292 282 272 269 270 271 274 273 274 280 281 278 275 272 265 259 257 257 254 247 240 243 246 249 252 255 257 257 255 259 262 263 263 264 265 264 262 258 253 251 252
61 66 62 64 68 74 85 98 106 101 93 86 79 81 86 88 90 92 97 107 117 133 145 132 122 140 149 150 156 163 158 145 162 181 174 240 280 281 292 319 320 316 322 322 313 309 301 287 279 275 276 277 289 301 292 274 267 267 267 263 258 255 252 252 249 246 249 253 253 252 254 255 253 255 259 261 262 264 265 264 262 260 259 258 257
61 67 66 70 68 70 77 80 85 91 93 91 85 85 85 87 93 95 97 103 107 117 128 116 110 125 142 146 153 167 177 194 215 222 229 243 261 270 272 307 310 287 292 322 319 321 332 337 323 293 281 287 302 303 281 263 265 266 266 260 256 255 254 259 261 260 264 264 258 254 253 254 253 252 253 255 259 261 262 264 264 261 259 261 261
58 66 66 73 75 73 76 76 76 76 76 77 77 80 77 73 82 87 87 91 95 98 100 105 111 115 118 121 132 142 148 175 201 202 232 239 233 234 240 271 291 275 274 310 313 318 329 345 5 16 351 305 282 255 241 247 258 263 268 267 264 266 268 268 266 267 269 268 263 257 254 254 253 250 249 250 253 256 257 259 261 261 260 260 260
41 67 62 62 77 80 78 80 82 79 77 71 66 71 70 61 61 65 67 68 72 76 77 81 87 98 109 104 94 88 94 101 108 104 74 245 184 207 244 243 275 310 331 322 313 327 341 344 356 20 28 293 226 221 235 251 264 273 280 281 278 276 274 269 266 266 266 265 263 260 256 255 253 251 250 250 251 255 257 257 257 258 259 261 260
312 53 57 46 61 74 76 82 85 83 87 85 78 79 75 59 52 55 58 58 59 62 64 66 65 63 77 87 73 38 49 76 77 84 57 354 39 272 306 327 345 357 344 320 321 350 0 8 27 43 43 33 239 256 280 281 285 291 289 284 281 277 273 269 266 265 264 263 262 261 259 257 256 255 253 252 251 254 257 260 260 259 260 262 262
268 318 42 22 27 46 56 74 85 82 86 88 87 89 76 60 55 52 56 55 54 58 61 64 67 66 63 64 60 41 39 43 30 30 25 4 5 0 6 0 331 336 343 339 335 292 321 46 113 57 45 23 337 286 286 295 293 291 288 285 281 275 269 265 263 263 263 263 263 262 261 260 259 259 257 256 254 254 256 258 260 261 261 263 264
260 277 314 330 350 0 0 27 64 70 80 88 83 90 84 60 62 51 52 54 51 55 61 63 69 74 73 67 66 58 43 34 29 26 24 14 8 8 18 12 335 328 324 311 297 275 264 234 254 292 275 233 257 248 252 263 265 268 274 275 273 273 272 269 268 270 270 267 264 262 262 263 263 262 260 259 258 257 257 257 258 259 260 263 264
250 268 285 298 314 325 328 338 345 347 1 308 14 63 314 55 74 51 45 51 52 58 57 58 64 71 76 77 79 75 52 40 49 39 30 31 26 18 7 357 338 325 314 304 302 296 281 268 261 258 246 240 248 252 252 255 256 260 264 265 268 270 272 270 269 270 271 270 268 265 263 262 262 263 262 261 260 259 260 259 258 257 258 260 261
238 260 273 284 296 305 309 314 319 318 315 308 305 300 285 291 326 345 53 40 28 54 57 51 56 59 67 72 71 64 43 35 46 31 25 34 36 32 17 354 324 312 316 313 309 306 299 287 276 270 266 264 266 269 270 271 271 272 271 272 275 277 277 276 273 272 272 272 271 268 266 263 260 260 260 260 260 259 258 259 259 257 257 258 260
228 249 265 272 278 287 291 295 301 302 302 303 302 300 287 280 289 287 257 334 331 17 77 60 41 37 46 55 67 64 39 30 31 16 13 14 11 15 13 8 1 335 328 321 310 310 315 309 300 297 294 290 289 289 289 288 286 284 281 280 285 289 289 286 283 281 278 275 273 271 270 267 263 260 259 259 259 258 256 256 256 256 257 258 260
238 244 256 263 265 272 278 280 284 287 289 289 289 291 285 281 283 278 277 293 299 299 309 334 339 344 6 10 18 41 35 29 23 15 18 0 341 354 358 352 354 342 321 307 299 300 306 309 306 306 309 309 307 305 303 303 303 298 293 291 293 295 295 292 288 285 284 283 282 280 279 276 272 268 263 260 258 257 257 257 256 256 256 258 260
252 251 258 263 257 257 265 269 271 274 278 280 279 278 276 277 278 276 279 285 280 280 290 303 306 304 316 336 324 336 357 5 6 8 17 0 308 329 328 303 298 297 292 289 288 292 302 310 311 313 318 319 314 311 309 308 308 307 303 302 304 304 303 299 290 282 280 282 284 284 281 277 274 272 271 269 265 261 259 258 258 258 258 258 259
240 244 257 267 262 258 259 258 256 259 264 270 274 273 270 269 270 271 276 277 270 267 275 286 290 290 295 304 304 313 328 337 345 353 357 358 354 339 314 299 299 300 301 301 298 300 307 312 314 315 316 313 310 310 312 311 311 310 306 305 305 305 306 305 301 293 284 277 275 274 273 271 269 268 269 271 272 270 266 262 260 260 260 260 260
241 241 243 249 255 258 256 251 248 248 251 256 261 266 267 264 263 265 268 269 265 266 273 276 268 270 283 294 299 304 313 320 327 334 337 339 338 325 316 313 309 301 297 293 291 293 295 298 301 304 304 304 306 309 310 309 307 304 301 298 295 294 294 293 292 289 282 274 266 263 264 266 267 267 268 270 272 274 274 270 266 263 261 260 259
249 249 249 248 247 247 249 251 249 245 245 246 248 254 258 255 252 256 262 265 264 265 269 265 254 256 271 283 287 292 300 306 309 314 319 320 320 319 319 320 316 308 299 292 290 290 289 292 297 301 302 304 305 307 306 305 305 303 301 297 291 288 286 283 282 283 285 288 282 271 267 266 266 267 267 269 271 274 276 276 274 270 265 262 261
251 255 261 260 252 244 243 248 250 246 243 243 243 246 249 247 243 246 253 259 261 262 262 256 252 254 263 273 277 280 289 297 299 303 308 310 314 319 321 322 320 316 311 307 304 301 299 299 301 303 305 306 306 306 307 306 304 301 298 295 293 293 294 295 296 294 293 294 288 278 274 274 272 270 269 269 270 273 276 278 280 278 273 268 264
250 253 259 259 256 254 250 248 248 247 244 243 243 244 246 246 242 242 247 252 256 258 257 252 253 258 261 265 270 276 283 288 293 298 302 306 311 316 318 318 317 314 311 310 307 304 303 302 302 302 303 303 302 302 304 305 299 295 295 295 294 293 290 288 286 281 278 278 279 280 281 280 275 271 271 272 273 275 277 279 280 280 278 274 269
245 246 254 254 254 258 257 250 248 247 247 246 243 243 246 246 245 244 244 247 250 253 252 249 251 257 262 265 268 273 279 285 291 296 299 303 307 311 312 312 311 309 307 306 305 304 303 301 300 298 296 296 296 296 300 302 298 296 293 288 284 281 276 271 270 273 277 281 286 289 292 291 286 279 274 272 273 276 279 282 283 282 281 280 277
249 250 256 254 250 253 253 250 249 248 249 247 243 243 245 244 245 246 244 244 246 246 246 247 248 252 260 266 267 272 281 288 293 295 296 299 302 305 308 307 307 307 306 305 305 304 302 299 297 295 291 289 289 290 291 289 286 285 282 279 280 281 281 280 279 281 285 290 293 295 297 299 299 295 288 280 277 275 277 281 283 282 282 284 284
266 264 262 255 253 252 248 246 247 247 247 247 247 247 245 240 241 244 244 241 241 242 243 245 248 254 261 266 269 275 284 289 292 294 295 296 299 302 304 304 305 305 305 305 305 304 302 299 297 295 292 289 288 286 284 283 283 284 283 284 285 285 287 288 287 289 291 292 290 286 285 287 287 284 278 276 275 273 273 276 279 280 282 284 283
278 278 272 263 260 259 254 249 250 250 250 251 252 250 244 237 237 241 242 240 238 239 243 246 252 259 264 268 274 280 285 288 291 294 294 295 297 299 300 301 303 306 308 308 308 307 304 300 298 295 292 292 291 287 284 282 280 277 276 276 276 277 280 282 284 288 288 283 281 279 278 276 273 270 267 265 265 264 263 264 269 273 275 278 279
271 274 274 269 265 263 260 257 255 254 254 253 251 247 239 234 236 239 238 237 237 237 240 246 252 259 266 271 275 279 283 289 294 296 296 297 298 299 300 302 305 308 309 308 308 308 306 303 300 297 294 293 292 290 287 282 276 272 270 269 268 269 271 273 277 280 279 279 279 279 279 278 276 274 273 272 272 270 267 263 262 264 267 270 274
259 259 261 262 263 263 263 261 258 258 259 257 252 244 236 233 237 239 237 235 237 237 238 244 247 251 261 266 266 271 280 289 295 298 299 301 302 301 302 303 305 306 306 306 306 306 305 303 300 298 299 298 296 295 293 287 281 277 274 272 270 269 269 269 271 272 273 275 275 276 276 277 278 279 279 280 282 282 280 273 265 261 263 265 269
263 262 262 260 259 261 263 261 258 259 261 259 252 244 240 239 240 240 237 236 238 239 240 244 246 246 251 254 255 263 275 285 290 292 292 293 295 295 296 298 301 303 304 305 305 304 302 300 297 296 298 297 295 295 294 289 283 279 278 277 276 274 272 271 270 270 271 271 272 276 278 279 283 285 284 287 289 288 285 280 272 265 260 259 262
268 266 266 265 264 262 261 261 260 257 257 257 251 242 242 241 239 237 237 239 240 238 236 239 243 245 250 255 261 270 278 284 285 283 284 286 290 291 292 294 298 300 301 304 306 305 301 297 295 295 296 296 295 295 294 289 282 280 280 280 280 279 278 277 275 274 274 273 272 275 278 281 285 286 287 291 293 291 289 285 279 271 263 258 257
271 267 265 266 268 267 265 264 263 258 255 256 253 245 241 240 237 236 239 240 237 234 233 237 243 250 257 264 272 280 285 287 285 285 288 291 292 291 292 296 300 301 302 304 305 303 300 296 294 293 293 293 291 290 288 284 281 281 280 277 276 277 279 280 280 279 280 280 279 277 277 280 284 286 289 293 294 293 293 289 284 277 268 262 259
272 272 269 267 266 267 267 266 264 262 257 255 255 251 245 242 238 237 240 240 237 236 238 241 247 256 264 272 280 285 288 285 282 285 289 290 291 293 295 299 301 301 303 305 304 302 298 295 291 288 285 282 281 280 279 277 277 278 278 277 277 278 279 279 280 282 282 282 280 275 271 273 277 281 286 290 292 295 297 295 290 283 275 268 262
270 270 269 268 268 265 263 259 259 262 260 256 254 251 244 240 238 238 240 239 236 237 241 246 254 264 271 277 282 285 284 282 283 287 291 292 294 295 296 297 297 298 301 302 301 299 296 293 290 287 284 281 279 279 279 277 274 272 273 275 278 279 278 278 280 283 283 280 277 272 269 270 272 273 276 282 286 288 292 294 295 291 286 280 273
269 269 269 269 266 260 256 254 256 260 260 256 253 248 240 235 235 238 240 237 235 239 244 248 253 260 265 268 270 273 277 281 286 289 290 290 290 290 291 292 293 295 297 297 297 296 295 293 291 288 286 284 282 280 278 276 274 272 270 272 274 275 276 277 279 282 283 281 278 271 269 273 276 271 268 277 287 289 288 288 290 292 290 285 277